Погода в Пригорах

Россия / Смоленская область     53°48′48″N   33°08′29″E
темп.,
°C
ветер,
м/с
пор.,
м/с
влажн.,
%
обл.,
%
осадки,
мм/ч
давл.,
гПа
погр.,
м
10 мая, пн
пн1000:00+3сз34720 0.0 102553
03:00+2ссз33715 0.0 102630
06:00+3с23755 0.0 102746
09:00+9с23575 0.0 1027358
12:00+13ссв35430 0.0 10271351
15:00+14ссв45400 0.0 10261524
18:00+14ссв35520 0.0 1026711
21:00+8св35670 0.0 102763
11 мая, вт
вт1100:00+6всв35790 0.0 102786
03:00+4ссв48780 0.0 1028116
06:00+5ссв411770 0.0 1027224
09:00+11св68671 0.0 1026427
12:00+16св67615 0.0 1024694
15:00+19св68590 0.0 10231026
18:00+18св69700 0.0 10221010
21:00+13в4119254 0.6 1023267
12 мая, ср
ср1200:00+11юв4109219 0.0 1024500
03:00+7вюв310950 0.0 1025270
06:00+6в25950 0.0 1025145
09:00+11в3472100 0.0 1024482
12:00+14всв5559100 0.0 10221421
15:00+11всв4579100 0.9 1019545
18:00+8вюв3793100 3.6 1018499
21:00+7в389567 3.6 1018195
13 мая, чт
чт1300:00+8в61493100 0.0 1017520
03:00+8в4996100 0.5 1016423
06:00+8юв5994100 6.4 1015557
09:00+10ююв61083100 6.5 1016972
12:00+12ююв587186 0.1 10161184
15:00+16ююв685449 0.1 10151906
18:00+16юв4764100 0.0 1014798
21:00+11вюв3579100 0.0 101564
14 мая, пт
пт1400:00+10вюв3786100 0.0 1015117
03:00+10в4119378 0.1 1014225
06:00+11в61491100 0.1 1012336
09:00+15вюв71483100 0.2 1011715
12:00+17вюв91481100 0.6 10101004
15:00+18ююв61077100 0.7 10091178
18:00+18ю478214 0.3 1008789
21:00+14ююв36945 0.3 1009114